Wind_Speed
2 3 6 12 8 7 6 6 11 12 12 5 13 17 13 14 10 11 10 8 7 9 8 13 12 13 15 15 26 31 35 36 41 36 30 29 30 28 25 22 19 20 19 12
3 7 13 8 6 6 7 7 8 9 12 6 11 18 15 13 10 15 15 12 8 5 5 8 14 13 14 22 27 33 39 35 30 35 34 28 28 29 27 22 20 20 19 15
9 10 1 5 5 6 5 6 8 15 15 6 8 20 9 9 8 11 13 10 8 10 9 8 8 13 11 18 23 31 34 36 36 33 31 24 25 20 21 22 21 21 20 19
6 5 5 4 5 5 10 9 12 12 8 6 4 12 5 8 15 11 14 10 10 9 7 8 8 9 15 21 23 25 29 33 33 34 30 31 26 21 21 26 25 26 22 22
8 3 7 7 8 3 6 6 7 12 11 5 6 4 5 2 5 10 9 12 12 6 8 10 9 16 21 19 23 25 29 30 33 32 31 32 24 23 24 25 27 27 25 24
5 5 4 5 3 2 3 5 10 3 2 7 11 10 4 5 7 6 6 8 7 4 7 8 11 15 20 23 17 26 27 32 33 37 33 30 29 28 29 29 30 28 26 20
7 5 3 3 5 6 8 5 4 5 0 5 5 7 14 13 9 9 10 9 6 2 5 7 7 7 15 20 20 24 27 26 34 34 33 33 34 34 37 34 33 30 23 20
2 8 3 1 2 5 7 6 4 5 3 4 3 7 5 9 11 8 7 7 5 4 1 6 7 7 14 21 22 21 27 24 33 35 33 36 35 34 35 39 36 27 23 12
4 6 5 13 15 8 3 4 3 2 4 6 4 6 8 11 9 6 6 1 3 5 4 7 6 9 15 22 24 25 24 28 34 34 35 34 36 36 36 37 35 34 28 28
4 12 5 3 2 7 6 5 2 2 4 5 5 5 6 7 4 4 6 7 7 4 5 6 6 7 17 26 28 30 27 31 36 38 35 37 37 35 38 34 31 30 28 30
1 5 7 5 5 5 2 3 3 3 3 3 5 5 6 7 7 5 6 8 8 8 5 5 7 10 7 20 24 28 29 25 31 38 35 34 36 31 38 31 32 34 34 34
3 4 7 9 15 7 5 4 5 3 3 4 4 10 7 5 5 4 8 9 11 7 6 4 6 8 14 11 27 25 26 28 35 36 35 34 35 32 35 34 35 37 36 33
4 4 4 8 3 3 3 4 8 6 5 13 7 8 1 5 7 8 7 8 13 15 14 5 5 6 6 15 19 26 25 30 34 35 36 34 35 35 34 39 37 39 39 35
10 5 9 10 11 4 7 9 10 8 4 7 11 22 20 19 20 19 12 9 11 15 14 6 6 7 7 17 15 27 27 32 35 34 36 35 37 39 40 41 40 40 41 37
2 5 7 16 18 19 24 23 18 16 15 11 12 17 16 15 14 12 13 14 14 15 13 7 6 7 7 15 17 28 29 32 36 34 34 36 38 42 43 43 42 42 40 36
1 3 3 8 18 16 20 19 16 15 9 11 13 19 9 14 14 15 14 13 15 16 14 12 8 9 10 14 17 29 31 33 39 36 36 40 42 42 43 44 46 45 42 36
2 2 3 5 7 14 8 5 2 2 10 12 9 5 11 18 20 19 18 17 18 18 17 16 15 14 14 19 23 31 30 37 41 40 40 41 42 42 41 44 42 43 40 40
3 2 2 5 6 4 2 5 4 9 16 8 7 11 14 16 19 22 20 22 21 19 19 17 13 13 23 23 29 34 36 42 42 41 42 43 44 45 45 47 46 42 36 36
7 1 3 3 2 9 9 3 5 9 21 6 5 18 21 18 22 21 12 8 15 15 14 16 16 23 23 26 38 39 38 42 43 40 42 45 51 50 50 50 45 42 36 34
5 7 3 2 4 4 1 8 12 8 7 6 16 20 20 18 12 16 16 18 18 17 15 9 21 15 26 31 41 40 36 39 39 40 42 47 54 50 46 43 49 40 36 34
4 2 5 4 4 6 2 11 9 1 6 18 18 20 20 16 13 21 25 25 15 14 11 18 22 22 35 34 43 35 37 38 43 45 43 42 40 50 54 48 43 42 41 37
3 2 3 2 3 6 1 4 2 6 14 18 20 20 22 22 25 23 21 19 13 5 7 25 21 22 32 40 44 34 35 44 51 51 48 44 47 42 42 52 42 41 42 39
3 4 2 5 5 2 5 7 8 9 16 19 19 23 23 23 23 24 20 10 6 15 14 27 28 28 32 38 46 42 39 46 52 53 49 46 44 44 42 42 42 38 35 33
3 3 3 2 3 4 12 7 6 15 17 20 20 22 24 21 20 14 9 17 9 16 15 29 29 26 29 40 43 47 48 46 48 53 47 49 40 40 33 36 34 34 31 30
3 2 4 5 8 10 6 10 13 17 19 19 21 22 20 15 12 15 17 17 16 17 22 29 27 29 32 41 43 44 52 54 43 49 44 38 37 37 38 35 33 35 30 34
4 4 2 3 4 6 11 13 18 17 18 19 20 20 16 12 7 19 16 14 14 16 26 28 31 36 37 39 45 44 47 51 48 43 38 35 35 37 39 42 40 35 34 32
Wind_Direction
5 48 257 254 217 240 274 283 269 275 277 283 276 280 280 280 283 276 276 257 247 240 264 254 258 274 258 225 201 194 194 196 197 196 200 210 208 210 205 201 198 190 188 187
10 234 249 246 254 225 245 254 267 268 267 236 272 273 278 274 254 258 265 264 241 201 240 255 255 266 238 230 200 194 203 205 193 190 195 204 199 207 204 193 193 186 182 176
215 245 198 203 261 252 245 240 272 275 291 257 280 281 240 248 237 242 249 241 232 215 221 234 239 257 251 219 216 197 200 206 207 199 191 204 191 190 190 185 180 177 171 165
227 273 233 240 240 241 291 269 282 278 293 280 125 296 234 240 251 252 257 258 241 224 202 232 219 242 250 220 209 215 194 192 188 193 189 191 173 164 178 179 171 164 167 159
252 275 267 267 247 231 241 303 275 273 262 286 217 257 278 274 244 252 257 247 252 227 195 227 221 230 239 245 216 203 200 197 189 193 195 188 161 169 165 166 158 153 162 156
250 267 225 228 294 84 314 346 313 5 155 254 222 200 301 230 234 265 257 267 254 210 207 232 240 245 244 255 220 206 196 195 187 193 199 188 162 148 141 149 149 151 149 147
322 305 272 57 3 351 7 34 327 328 241 240 327 213 252 291 272 247 259 272 278 165 200 225 234 229 232 246 238 195 197 188 191 192 193 191 174 159 149 145 145 148 144 137
318 325 340 221 187 223 278 172 177 265 251 269 318 251 249 245 281 279 259 268 316 350 302 252 250 245 236 236 241 205 186 181 189 195 185 187 179 160 161 161 154 151 141 131
289 258 262 279 290 156 198 195 224 261 242 272 235 289 300 266 307 271 244 295 342 328 298 268 280 244 237 233 227 221 191 179 182 179 171 170 175 170 162 162 162 155 150 155
279 291 255 359 335 217 180 169 36 212 275 259 273 260 240 285 270 344 352 312 291 254 259 289 292 268 233 231 221 220 206 181 177 177 171 168 169 161 161 161 158 166 164 161
273 222 282 18 213 211 153 223 171 219 220 262 295 254 217 250 254 236 301 297 296 308 297 274 292 310 297 240 234 215 202 172 176 176 171 164 162 158 160 156 164 169 165 160
235 282 272 241 263 235 175 217 165 223 223 233 236 263 256 241 255 262 287 289 291 280 290 270 255 281 297 269 237 216 197 173 178 173 172 164 161 162 157 158 163 163 154 154
172 241 298 315 17 72 195 205 207 234 235 245 261 260 244 312 292 267 266 300 309 308 300 275 266 265 269 263 232 221 195 175 168 168 164 158 160 154 150 155 155 154 151 148
265 236 221 257 256 265 265 251 247 237 243 273 247 278 284 292 290 295 303 311 300 299 289 271 244 260 254 257 251 202 196 169 163 164 160 155 147 146 144 147 143 144 146 143
212 253 229 252 264 269 266 270 270 264 261 262 284 274 285 305 309 290 299 305 306 301 296 259 234 253 252 259 260 198 180 165 154 156 154 141 136 137 139 137 138 139 138 138
23 272 294 276 263 268 276 274 264 260 277 286 284 284 353 313 301 290 288 287 287 284 288 292 269 255 250 249 239 178 165 161 147 139 131 131 130 129 130 133 136 138 136 135
305 298 279 265 321 307 289 312 135 290 282 281 278 304 303 308 305 302 295 290 281 280 278 275 269 264 251 235 213 160 152 135 129 127 126 126 124 120 121 125 125 131 135 139
222 257 246 287 326 340 217 73 331 295 284 276 277 313 300 295 296 295 283 274 272 263 263 266 271 268 233 218 165 136 133 125 125 126 124 123 121 117 119 123 126 129 129 126
211 204 275 295 284 271 176 55 327 319 301 292 306 321 317 311 306 293 271 264 258 261 275 269 265 274 175 146 138 131 130 129 127 127 125 125 123 121 126 128 127 126 130 126
202 238 253 292 277 283 52 332 311 297 270 38 340 314 309 311 302 293 310 303 283 286 281 236 274 197 131 134 136 130 131 127 122 124 124 125 127 128 123 124 128 132 132 126
285 265 245 251 259 277 38 308 299 345 291 328 315 304 298 293 278 286 293 290 283 267 269 227 166 139 128 138 119 126 125 117 118 115 113 115 120 123 127 125 128 131 129 131
270 282 246 241 266 286 306 280 355 290 300 304 304 300 296 293 293 288 285 278 273 241 138 117 112 116 123 119 115 115 113 118 115 112 109 109 111 111 117 126 128 129 131 126
262 208 270 211 240 188 233 241 279 283 301 305 303 301 301 298 294 294 287 269 169 128 122 117 114 112 108 111 113 110 114 116 113 110 107 104 111 115 123 125 127 124 123 119
252 159 239 300 232 280 297 300 317 316 302 302 302 299 299 300 297 306 79 139 144 113 116 119 116 112 113 113 111 113 112 110 109 106 106 113 113 113 114 117 119 123 121 116
246 168 236 251 284 299 256 326 316 308 305 308 308 304 308 309 327 47 40 115 107 110 110 112 109 104 105 109 108 112 110 109 110 105 109 112 116 114 113 113 119 121 120 128
184 216 232 273 286 283 290 303 305 305 310 308 307 313 323 4 54 74 51 55 89 98 98 92 97 100 104 105 107 108 114 114 112 110 113 117 115 113 110 109 106 112 116 116
Height
776 785 790 782 783 776 779 782 781 768 759 764 758 748 746 739 738 735 729 728 726 727 720 715 714 711 708 713 713 713 721 723 733 737 747 755 757 763 767 769 774 776 780 782
783 787 770 768 771 777 778 780 778 763 756 761 753 740 735 734 730 724 719 718 719 721 720 715 712 709 707 708 713 712 715 720 718 726 737 750 753 761 767 768 772 775 777 779
782 769 761 766 768 771 771 774 768 762 751 750 751 730 734 723 719 714 710 710 711 713 715 712 709 706 704 704 707 711 710 715 719 726 736 749 752 758 763 767 771 774 775 777
774 762 763 764 768 766 768 757 756 756 760 766 747 742 728 721 713 710 705 704 703 704 708 705 704 703 701 700 703 708 709 715 720 729 736 744 744 751 758 764 768 769 774 776
771 763 764 766 761 755 763 755 756 752 756 759 751 765 725 716 717 711 701 698 695 699 703 701 699 697 695 693 697 702 706 713 718 725 734 741 742 749 753 760 765 764 776 776
769 758 758 758 750 751 753 758 755 758 760 754 746 752 721 716 708 701 693 690 691 694 697 697 694 694 693 691 694 698 703 709 714 723 732 735 739 744 749 757 763 771 773 777
774 764 754 751 760 758 760 771 798 786 762 750 744 743 712 705 700 697 692 689 688 691 694 694 693 691 688 687 691 696 699 704 710 719 725 731 735 740 744 752 758 767 772 776
790 786 758 753 759 766 766 770 791 778 759 756 741 739 718 699 688 687 685 686 688 689 691 691 690 688 686 684 683 689 695 701 707 713 720 727 732 738 742 746 752 759 766 776
783 782 757 753 749 759 762 768 759 778 764 752 732 721 707 692 689 685 684 682 686 690 692 690 686 684 682 680 678 683 687 697 703 710 715 721 727 734 740 746 750 754 760 765
776 771 751 749 748 747 751 752 773 758 749 744 736 727 716 698 690 687 689 691 689 688 689 686 682 679 676 676 673 678 681 687 694 703 710 717 724 733 740 745 745 754 760 765
780 777 758 756 755 751 752 755 754 759 757 744 731 718 703 697 695 690 691 688 685 683 684 685 681 675 676 674 674 675 674 686 692 697 707 715 723 732 735 742 749 754 760 766
777 774 765 756 736 738 742 748 755 753 748 741 744 710 688 688 690 689 692 686 680 678 677 679 678 673 671 672 672 671 672 680 688 694 704 712 721 730 735 742 751 756 763 772
774 771 770 754 743 740 742 738 741 746 743 731 731 705 690 690 689 687 689 685 678 670 672 675 674 671 670 668 668 669 670 673 685 693 701 711 720 729 735 742 752 756 764 776
762 768 760 749 738 738 746 740 738 742 734 720 719 698 693 690 692 686 686 685 679 670 668 669 670 668 665 664 664 663 665 668 680 692 700 708 715 724 736 744 751 759 766 777
760 756 756 747 740 736 729 728 726 727 723 722 710 707 701 695 692 692 688 681 677 671 665 663 664 663 660 659 656 657 659 667 674 689 698 705 714 725 735 744 752 760 770 782
763 753 751 743 730 729 722 716 716 715 720 719 705 700 706 700 693 687 681 678 673 665 661 659 657 656 653 653 649 648 655 665 669 685 696 705 716 725 734 744 754 763 772 782
765 763 764 745 731 725 727 717 717 723 718 720 710 708 710 701 694 686 679 675 668 661 657 652 649 647 645 642 640 644 656 660 668 684 696 708 718 729 739 750 760 770 776 782
762 762 759 744 739 765 722 725 726 725 715 706 715 712 707 699 689 680 674 666 657 650 644 642 639 637 635 630 632 644 655 660 671 687 697 710 720 731 742 753 764 775 783 785
756 760 752 754 751 730 720 729 730 727 707 705 711 706 699 694 683 663 654 648 643 640 640 632 630 627 618 624 634 647 657 665 675 689 699 711 718 733 747 758 770 774 786 790
752 754 752 752 743 732 725 728 720 722 706 707 709 702 696 691 676 652 645 640 636 636 633 625 617 619 616 629 639 645 659 668 679 694 704 715 724 738 749 762 764 779 791 797
762 754 752 758 746 731 732 728 719 727 710 707 706 698 692 683 674 655 645 630 630 626 617 609 615 622 621 639 631 654 665 673 684 695 710 724 737 741 750 765 780 789 795 806
758 754 765 753 749 745 734 726 730 722 711 709 699 691 682 671 655 642 631 623 622 618 617 617 621 632 636 637 646 664 672 680 688 702 717 731 740 753 766 771 786 795 803 813
750 752 749 752 737 731 731 726 722 719 713 704 697 682 672 658 641 628 619 612 615 617 622 626 631 642 648 654 656 669 687 691 695 707 723 735 750 760 773 784 795 804 810 816
746 749 748 746 731 730 725 723 719 716 709 699 690 678 663 650 632 615 598 607 614 620 627 633 641 647 658 665 673 680 687 697 705 713 730 747 764 771 785 793 800 808 814 818
745 751 743 736 730 727 721 720 718 710 702 694 683 670 656 643 630 622 618 619 623 630 636 641 649 656 666 673 684 691 690 696 723 725 744 761 773 779 789 800 807 810 819 824
747 742 741 734 734 731 724 719 716 707 699 690 680 665 653 645 640 634 637 639 638 642 647 655 664 671 679 685 690 700 708 716 727 742 760 772 780 790 798 804 815 825 830 834